SCP
0 0 0 -0 -0 -0 -0 -0 -0 -0 -0 -0 -0 -0 -0 -0 0 0 0 0 0 0 0 0 0 0 0 0 0 0 0 0 0 0 0 0 0 0 0 0 0 0 0
0 1 0 -0 -0 -0 -0 -0 -0 -0 -0 -0 -0 -0 -0 -0 0 0 0 0 0 0 0 0 0 0 0 0 0 0 0 0 0 0 0 0 0 0 0 0 0 0 0
0 0 0 -0 -0 -0 0 0 0 0 0 0 0 0 0 0 0 0 0 0 0 0 0 0 0 0 0 0 0 0 0 0 0 0 0 0 0 0 0 0 0 0 0
-0 -0 -0 -0 -0 -0 0 0 0 0 0 0 0 0 0 0 0 0 0 0 0 0 0 0 0 0 0 0 0 0 0 0 0 0 0 0 0 0 0 0 0 0 0
-0 -0 -0 -0 -0 -0 0 0 0 0 0 0 0 0 0 0 0 0 0 0 0 0 0 0 0 0 0 0 0 0 0 0 0 0 0 0 0 0 0 0 0 0 0
0 0 -0 -0 -0 -0 0 0 0 0 0 0 0 0 0 0 0 0 0 0 0 0 0 0 0 0 0 0 0 0 0 0 0 0 0 0 0 0 0 0 0 0 0
0 0 0 0 0 0 0 0 0 0 0 0 0 0 0 0 0 0 0 0 0 0 0 0 0 0 0 0 0 0 0 0 0 0 0 0 0 0 0 0 0 0 0
0 0 0 0 0 0 0 0 0 0 0 0 0 0 0 0 0 0 0 0 0 0 0 0 0 0 0 0 0 0 0 0 0 0 0 0 0 0 0 0 0 0 0
0 0 0 0 0 0 0 0 0 0 0 0 0 0 0 0 0 0 0 0 0 0 0 0 0 0 0 0 0 0 0 0 0 0 0 0 0 0 0 0 0 0 0
0 0 0 0 0 0 0 0 0 0 0 0 0 0 0 0 0 0 0 0 0 0 0 0 0 0 0 0 0 0 0 0 0 0 0 0 0 0 0 0 0 0 0
0 0 0 0 0 0 0 0 0 0 0 0 0 0 0 0 0 0 0 0 0 0 0 0 0 0 0 0 0 0 0 0 0 0 0 0 0 0 0 0 0 0 0
0 0 0 0 0 0 0 -0 0 0 0 0 0 0 0 0 0 0 0 0 0 0 0 0 0 0 0 0 0 0 0 0 0 0 0 0 0 0 0 0 0 0 0
0 0 0 0 0 0 0 0 0 0 0 0 0 0 0 0 0 0 0 0 0 0 0 0 0 0 0 0 0 0 0 0 0 0 0 0 0 0 0 0 0 0 0
0 0 0 0 0 0 0 0 0 0 0 0 0 0 0 0 0 0 0 0 0 0 0 0 0 0 0 0 0 0 0 0 0 0 0 0 0 0 0 0 0 0 0
0 0 0 0 0 0 0 0 0 0 0 0 0 0 0 0 0 0 0 0 0 0 0 0 0 0 0 0 0 0 0 0 0 0 0 0 0 0 0 0 0 0 0
0 0 0 0 0 0 0 0 0 0 0 0 0 0 0 0 0 0 0 0 0 0 0 0 0 0 0 0 0 0 0 0 0 0 0 0 0 0 0 0 0 0 0
0 0 0 0 0 0 0 0 0 0 0 0 0 0 0 0 0 0 0 0 0 0 0 0 0 0 0 0 0 0 0 0 0 0 0 0 0 0 0 0 0 0 0
0 0 0 0 0 0 0 0 0 0 0 0 0 0 0 0 0 0 0 0 0 0 0 0 0 0 0 0 0 0 0 0 0 0 0 0 0 0 0 0 0 0 0
0 0 0 0 0 0 0 0 -0 -0 -0 0 0 0 0 0 0 0 0 0 0 0 0 0 0 0 0 0 0 0 0 0 0 0 0 0 0 0 0 0 0 0 0
0 0 0 0 0 0 0 0 -0 -0 -0 -0 0 0 0 0 0 0 0 0 0 0 0 0 0 0 0 0 0 0 0 0 0 0 0 0 0 0 0 0 0 0 0
0 0 0 0 0 0 0 0 -0 -0 -0 -0 -0 0 0 0 0 0 0 0 0 0 0 0 0 0 0 0 0 0 0 0 0 0 0 0 0 0 0 0 0 0 0
0 0 0 0 0 0 0 -0 -0 -0 -0 -0 -0 0 0 0 0 0 0 0 0 0 0 0 0 0 0 0 0 0 0 0 0 0 0 0 0 0 0 0 0 0 0
0 0 0 0 -0 -0 0 -0 -0 -0 -0 -0 -0 0 0 0 0 0 0 0 0 0 0 0 0 0 0 0 0 0 0 0 0 0 0 0 0 0 0 0 0 0 0
0 0 0 0 -0 -0 -0 -0 -0 -0 -0 -0 -0 0 0 0 0 0 0 0 0 0 0 0 0 0 0 0 0 0 0 0 0 0 0 0 0 0 0 0 0 0 0
0 0 0 0 -0 0 -0 -0 -0 -0 0 0 0 0 0 0 0 0 0 0 0 0 0 0 0 -0 -0 -0 0 0 0 0 0 0 0 0 0 0 0 0 0 0 0
0 0 0 0 0 0 -0 -0 0 0 0 0 0 0 0 0 0 0 0 0 0 0 0 0 -0 -0 -0 -0 -0 0 0 0 0 0 0 0 0 0 0 0 0 0 0
Wind_Speed
1 0 1 1 1 1 1 1 2 2 2 2 2 1 1 2 2 2 3 7 8 9 10 11 11 11 11 12 12 12 13 13 13 13 12 12 12 12 11 11 11 11 11
1 1 0 1 1 1 1 1 2 2 2 2 2 2 1 1 2 2 2 4 7 8 9 10 11 11 11 11 11 11 12 13 13 13 13 12 12 12 12 12 11 11 11
1 1 0 1 1 1 1 1 2 1 2 2 2 2 2 1 2 2 2 2 3 5 7 8 8 8 9 9 9 10 11 12 12 12 13 13 12 11 12 12 12 11 11
2 2 1 1 2 1 1 1 1 2 2 2 2 2 2 1 2 2 1 1 1 1 3 5 5 6 6 7 8 9 9 10 10 11 11 11 11 11 11 11 11 11 12
3 2 1 1 2 1 1 1 1 1 1 2 2 2 2 2 2 1 1 1 0 1 1 2 2 2 4 5 6 7 8 8 8 9 9 10 10 11 11 11 11 12 12
3 2 1 2 2 2 2 2 1 1 1 1 2 3 2 2 2 2 2 2 2 2 2 2 2 2 2 3 3 5 7 8 8 8 9 9 9 10 10 11 11 11 12
2 2 2 2 2 1 2 2 1 2 1 1 2 2 3 3 3 2 2 2 3 3 3 3 2 2 2 4 4 4 4 5 6 7 8 8 8 8 9 10 11 11 11
3 2 2 2 2 2 2 2 1 1 1 1 1 1 2 3 4 4 3 3 3 3 3 4 3 3 2 2 4 6 5 3 3 4 4 4 6 7 8 9 10 10 11
3 3 3 2 2 2 2 2 1 1 1 1 0 1 1 1 1 2 3 3 3 3 3 3 4 4 3 3 3 5 6 4 3 2 2 2 4 6 7 8 9 10 11
3 3 2 2 2 2 2 2 2 1 0 1 1 0 1 2 1 1 2 3 3 4 3 3 3 3 3 2 3 6 6 5 4 2 1 0 1 3 5 7 8 9 10
3 3 3 2 2 2 2 2 2 2 1 1 1 0 0 0 1 1 1 2 2 3 3 3 2 3 3 3 2 5 7 7 6 3 2 2 1 1 2 4 5 6 7
3 4 3 2 2 2 2 2 2 3 2 1 0 0 1 1 1 1 1 1 1 2 2 2 2 2 2 3 4 6 6 6 7 6 4 3 3 2 1 1 3 4 4
2 3 3 3 2 3 3 3 3 3 3 2 1 1 0 1 1 1 1 1 1 1 1 2 2 2 2 2 3 6 6 7 7 7 6 5 4 4 4 3 2 3 4
1 2 3 3 3 4 4 3 2 3 3 2 2 1 1 1 0 1 2 2 1 1 1 1 1 1 2 2 3 5 4 6 6 6 6 5 5 5 5 4 4 4 4
1 3 3 4 4 4 4 3 3 3 2 2 2 2 1 1 1 0 1 2 2 1 1 1 1 1 1 1 2 2 2 4 5 5 5 5 5 5 5 5 5 5 5
2 3 3 3 4 4 4 3 3 3 3 2 2 2 2 2 1 1 1 1 1 2 1 1 1 1 1 1 2 2 2 4 4 4 5 4 4 4 5 5 5 5 4
2 3 3 3 3 4 3 3 3 3 3 3 3 2 3 2 2 1 0 0 1 1 2 1 1 0 1 1 2 1 2 2 2 4 4 4 4 4 4 4 4 4 3
2 2 3 3 3 3 3 3 3 3 3 3 3 3 3 2 2 1 1 0 0 1 2 2 1 0 1 1 0 1 1 1 1 2 2 2 3 3 3 3 3 2 2
3 3 3 3 3 3 3 3 3 3 3 3 3 3 3 3 3 2 1 0 1 1 2 2 1 0 0 0 1 1 1 1 1 0 1 1 1 2 2 2 2 2 2
3 3 3 3 3 3 3 3 3 3 3 3 3 2 2 2 2 2 1 1 2 2 2 2 1 1 0 1 1 1 1 1 1 1 2 1 1 1 0 1 1 1 1
4 3 3 4 3 3 3 3 3 3 3 3 3 3 3 3 4 2 1 1 2 2 2 2 1 1 1 1 1 0 1 1 2 1 1 1 1 1 1 1 2 3 3
3 3 3 3 4 3 5 5 3 2 2 2 3 4 4 4 5 4 4 3 3 3 3 2 2 2 1 1 1 1 1 1 1 1 1 1 0 1 2 2 4 5 5
2 2 2 2 3 4 6 6 5 2 2 2 2 3 3 4 4 3 4 5 4 3 3 4 3 3 2 2 2 1 1 1 1 2 1 1 1 1 2 3 6 7 7
1 1 2 3 3 4 6 6 5 3 2 2 2 2 2 3 4 3 4 4 4 3 2 2 2 2 2 2 2 2 2 1 1 1 1 0 1 2 2 2 5 7 8
1 1 1 2 3 4 6 5 4 2 2 3 3 2 2 3 4 5 4 4 4 3 3 3 1 1 1 2 3 2 2 2 1 2 0 1 1 2 2 3 4 6 7
1 1 2 2 2 3 5 5 3 2 2 2 3 3 3 3 3 4 3 3 3 2 3 3 3 3 1 1 2 3 3 2 1 2 2 1 1 0 2 3 3 3 3
Wind_Direction
66 54 17 8 345 331 322 324 305 298 297 292 290 294 291 266 248 234 245 237 224 220 224 221 215 215 217 216 212 210 210 209 207 205 202 202 202 200 198 196 194 194 196
90 99 39 3 332 318 304 293 296 300 292 298 314 330 307 269 259 255 245 246 236 228 231 230 225 221 221 221 218 216 215 214 212 210 206 205 206 204 201 197 196 196 197
69 76 52 359 325 328 337 341 339 342 353 344 340 337 323 311 283 265 253 250 254 241 239 239 234 227 227 230 229 227 222 218 216 214 211 207 205 203 200 199 199 198 197
52 60 37 348 333 350 5 4 18 0 354 342 333 321 319 312 301 294 306 295 276 276 264 254 241 231 229 235 237 234 230 225 221 219 217 212 206 203 203 204 203 203 201
52 60 30 342 344 4 4 354 15 7 343 344 331 325 331 328 320 350 21 359 353 333 317 313 288 260 247 248 251 243 233 228 227 223 221 216 210 206 205 208 209 208 206
44 47 28 357 358 12 3 355 348 350 308 323 341 350 345 350 7 28 26 23 22 22 21 15 5 354 343 309 291 263 243 233 231 227 224 219 214 209 207 208 209 209 209
44 50 25 9 5 18 354 347 347 356 340 11 34 3 0 14 32 33 34 34 23 20 26 29 24 13 357 357 345 323 289 262 247 233 229 224 215 209 213 215 212 209 207
32 43 36 18 6 12 6 360 4 360 337 21 68 35 350 357 14 19 25 35 22 14 21 23 27 29 15 1 360 360 355 331 281 250 234 220 216 214 217 218 215 212 209
37 34 33 31 16 25 5 349 1 28 319 326 50 137 135 260 329 353 16 25 18 19 21 22 26 24 22 17 4 6 11 6 353 312 254 225 229 224 226 225 219 216 215
29 26 26 28 28 24 8 346 11 352 338 313 324 347 185 174 174 319 342 2 13 20 17 20 19 20 19 18 18 22 21 17 9 3 2 29 240 228 229 231 228 222 215
16 17 22 23 22 18 3 356 2 4 358 269 249 288 346 347 173 171 265 333 1 4 7 10 17 15 14 13 13 29 30 27 22 23 35 33 5 276 230 226 217 211 207
2 5 13 13 10 9 3 357 360 7 357 341 285 207 189 203 217 176 209 284 319 335 353 14 21 11 7 8 23 38 34 28 27 32 35 35 45 61 110 209 204 194 184
354 348 2 4 2 2 8 13 12 4 358 8 7 337 282 233 203 180 170 226 284 306 344 14 9 1 12 12 17 34 39 37 34 35 41 45 55 68 77 81 106 144 134
325 344 8 14 12 17 21 22 17 2 10 14 17 12 354 304 229 181 176 176 224 310 340 319 342 352 2 7 26 26 29 37 40 40 43 52 60 67 75 82 87 96 102
353 8 20 21 14 18 19 20 21 1 6 9 3 358 348 322 311 240 190 180 175 210 286 284 305 331 346 16 22 17 15 39 43 44 46 53 60 65 73 75 78 87 96
13 16 20 18 11 14 16 18 10 0 15 358 354 3 353 333 335 332 212 217 186 178 210 247 256 273 325 22 28 17 15 34 36 43 47 52 58 64 68 74 79 84 94
18 28 22 22 19 16 10 15 12 9 13 359 356 4 350 345 346 330 334 137 159 158 174 242 258 277 338 5 0 8 15 17 20 47 54 56 55 58 63 68 71 75 85
15 27 28 30 23 21 13 16 12 11 9 7 357 1 349 357 352 340 341 214 180 177 160 175 226 287 286 257 345 8 5 9 3 52 69 69 66 62 59 60 64 70 79
22 26 33 26 15 14 15 7 12 10 7 4 1 5 349 2 355 355 1 71 123 112 128 143 169 306 313 328 47 26 19 358 330 47 81 84 75 83 85 81 75 74 79
42 32 27 21 16 15 11 1 11 15 10 7 5 0 350 4 4 14 33 84 116 108 108 118 124 87 34 7 76 63 22 8 350 6 35 43 52 49 134 152 154 156 162
40 33 32 17 5 8 4 0 3 15 7 9 5 1 7 17 19 24 76 121 125 119 120 124 118 92 65 73 96 165 86 7 353 357 23 352 5 357 320 273 248 234 230
27 30 29 14 2 0 2 10 17 18 11 11 3 356 1 10 9 23 47 71 115 136 142 141 139 153 189 178 154 135 121 75 340 320 69 332 37 288 275 256 246 238 237
30 17 6 10 358 351 5 12 21 34 26 7 7 0 3 6 4 23 42 49 54 75 124 150 154 184 184 192 153 113 117 130 217 253 107 313 315 283 267 255 246 243 243
16 355 347 352 356 353 7 11 17 31 22 10 10 9 18 9 13 34 57 55 43 37 52 115 159 190 190 186 159 150 147 96 327 314 135 229 299 285 287 281 264 247 246
349 326 315 341 352 340 357 11 21 24 23 9 4 16 40 38 30 51 66 58 38 19 33 55 68 155 200 198 167 117 92 79 9 317 285 171 271 298 302 289 279 261 251
276 307 323 328 335 327 338 4 25 40 22 3 2 6 23 32 33 47 73 74 48 358 9 16 18 17 11 268 201 174 164 145 167 275 259 175 250 302 315 293 283 278 264